User: anonymous
Location: Mentone
(34.5413°N, 85.5351°W)
Time: 05:38:05
(UTC-05:00)
Language:

Cosmos 2150 Rocket - Orbit

View from above orbital plane
View from above orbital plane
View from above satellite
View from above satellite

Ground track
Ground track

The orbit data is extracted from the following two-line orbital elements,

1 21419U 91041B   14205.23113832  .00000080  00000-0  38066-4 0  5808
2 21419 074.0398 076.0537 0042121 261.7196 228.8063 14.33548473208708
Epoch (UTC): 24 July 2014 05:32:50
Eccentricity: 0.0042121
inclination: 74.0398°
perigee height: 750 km
apogee height: 810 km
right ascension of ascending node: 76.0537°
argument of perigee: 261.7196°
revolutions per day: 14.33548473
mean anomaly at epoch: 228.8063°
orbit number at epoch: 20870

The dashed part of the orbit path shows where the satellite is in the earth's shadow,  

DLR